Location: Akdamlar
(36.8729°N, 30.5187°E)
Time: 21:27:14
(UTC+00:00)

CENTAUR R/B - Pass Details

Date: 18 September 2020
Orbit: 755 x 1433 km, 63.4° (Epoch: 02 October)

Event Time Altitude Azimuth Distance (km) Brightness Sun altitude
Rises 19:29:13 0° 325° (NW) 4,257 6.7 -39.4°
Reaches altitude 10° 19:31:56 10° 324° (NW) 3,357 5.9 -39.8°
Enters shadow 19:38:32 58° 300° (WNW) 1,596 3.6 -40.8°
